This is the latest recevied weather packets stored in our database for station/object LU4EGV-13. If no packets are shown the sender has not sent any weather packets the latest 10 day(s).
| Time | Temp. | Humidity | Pressure | Rain* | Wind** | Luminosity | Snow |
|---|---|---|---|---|---|---|---|
| 1777987723 | 19.44° C | 83% | 1012.2 hPa | 0 mm | - | - | - |
| 1777987105 | 18.89° C | 84% | 1012.2 hPa | 0 mm | - | - | - |
| 1777986501 | 18.89° C | 85% | 1011.9 hPa | 0 mm | - | - | - |
| 1777985894 | 18.33° C | 86% | 1011.9 hPa | 0 mm | - | - | - |
| 1777985287 | 18.33° C | 86% | 1011.9 hPa | 0 mm | - | - | - |
| 1777984681 | 17.78° C | 86% | 1011.7 hPa | 0 mm | - | - | - |
| 1777984075 | 17.78° C | 87% | 1011.9 hPa | 0 mm | - | - | - |
| 1777983468 | 17.22° C | 88% | 1011.4 hPa | 0 mm | - | - | - |
| 1777982863 | 17.22° C | 88% | 1011.5 hPa | 0 mm | - | - | - |
| 1777982256 | 16.67° C | 89% | 1011.3 hPa | 0 mm | - | - | - |
| 1777981650 | 16.67° C | 89% | 1011.3 hPa | 0 mm | - | - | - |
| 1777981044 | 16.11° C | 89% | 1011 hPa | 0 mm | - | - | - |
| 1777980441 | 15.56° C | 91% | 1011 hPa | 0 mm | - | - | - |
| 1777979831 | 15.56° C | 91% | 1010.9 hPa | 0 mm | - | - | - |
| 1777979226 | 15.56° C | 90% | 1011.1 hPa | 0 mm | - | - | - |
| 1777978619 | 15° C | 90% | 1010.9 hPa | 0 mm | - | - | - |
| 1777978014 | 15° C | 90% | 1010.9 hPa | 0 mm | - | - | - |
| 1777977407 | 15° C | 90% | 1010.9 hPa | 0 mm | - | - | - |
| 1777976800 | 15° C | 91% | 1010.7 hPa | 0 mm | - | - | - |
| 1777976195 | 14.44° C | 91% | 1010.6 hPa | 0 mm | - | - | - |
| 1777975588 | 14.44° C | 92% | 1010.7 hPa | 0 mm | - | - | - |
| 1777974982 | 14.44° C | 92% | 1010.3 hPa | 0 mm | - | - | - |
| 1777974389 | 14.44° C | 92% | 1010.1 hPa | 0 mm | - | - | - |
| 1777973769 | 14.44° C | 92% | 1009.9 hPa | 0 mm | - | - | - |
| 1777973163 | 13.89° C | 93% | 1010.1 hPa | 0 mm | - | - | - |
* Rain latest hour (hover to see other rain measurements)
** Current wind speed in m/s (hover to see current wind gust speed)